Weather History for Kendall, FL

Change the Weather History Date:

Friday, November 9, 2012

  Actual Average Record
Temperature  
Mean Temperature 67 °F -  
Max Temperature 77 °F 81 °F 88 °F (1989)
Min Temperature 57 °F 63 °F 53 °F (1997)
Cooling Degree Days 2    
Growing Degree Days 17 (Base 50)    
Moisture  
Dew Point 51 °F    
Average Humidity 57    
Maximum Humidity 81    
Minimum Humidity 37    
Precipitation  
Precipitation 0.00 in - - ()
Sea Level Pressure  
Sea Level Pressure 30.16 in    
Wind  
Wind Speed 11 mph (NE)    
Max Wind Speed 18 mph    
Max Gust Speed 28 mph    
Visibility 10 miles    
Events      
Averages and records for this station are not official NWS values.
T = Trace of Precipitation, MM = Missing Value Source: NWS Daily Summary

Daily Weather History Graph

Daily Weather History Graph

Search for Another Location

Airport:

Trip Planner

Search our weather history database for the weather conditions in past years. The results will help you decide how hot, cold, wet, or windy it might be!

Date:

Astronomy

Nov. 09, 2012 Rise Set
Actual Time 6:35 AM EST 5:35 PM EST
Civil Twilight 6:11 AM EST 5:59 PM EST
Nautical Twilight 5:43 AM EST 6:26 PM EST
Astronomical Twilight 5:16 AM EST 6:54 PM EST
Moon 1:59 AM EST (11/9) 2:24 PM EST (11/9)
Length of Visible Light 11h 47m
Length of Day
10h 59m
Waning Crescent, 23% of the Moon is Illuminated
Nov 9
Waning Crescent
Nov 13
New
Nov 20
First Quarter
Nov 28
Full
Dec 6
Last Quarter

Hourly Weather History & Observations

Time (EST) Temp. Dew Point Humidity Pressure Visibility Wind Dir Wind Speed Gust Speed Precip Events Conditions
12:53 AM 60.1 °F 46.9 °F 62% 30.12 in 10.0 mi North 11.5 mph - N/A   Mostly Cloudy
1:53 AM 60.1 °F 51.1 °F 72% 30.11 in 10.0 mi North 13.8 mph - N/A   Mostly Cloudy
2:53 AM 59.0 °F 51.1 °F 75% 30.11 in 10.0 mi North 11.5 mph - N/A   Clear
3:53 AM 59.0 °F 51.1 °F 75% 30.11 in 10.0 mi North 10.4 mph - N/A   Partly Cloudy
4:53 AM 59.0 °F 51.1 °F 75% 30.12 in 10.0 mi North 12.7 mph - N/A   Clear
5:53 AM 57.0 °F 51.1 °F 81% 30.13 in 10.0 mi North 6.9 mph - N/A   Clear
6:53 AM 57.0 °F 51.1 °F 81% 30.15 in 10.0 mi North 8.1 mph - N/A   Clear
7:53 AM 62.1 °F 53.1 °F 72% 30.17 in 10.0 mi North 9.2 mph - N/A   Clear
8:53 AM 66.9 °F 55.0 °F 66% 30.19 in 10.0 mi NNE 9.2 mph - N/A   Partly Cloudy
9:53 AM 72.0 °F 55.9 °F 57% 30.20 in 10.0 mi NNE 11.5 mph - N/A   Clear
10:53 AM 75.0 °F 51.1 °F 43% 30.19 in 10.0 mi NE 15.0 mph - N/A   Clear
11:53 AM 77.0 °F 48.9 °F 37% 30.18 in 10.0 mi NE 13.8 mph - N/A   Partly Cloudy
12:53 PM 77.0 °F 48.9 °F 37% 30.16 in 10.0 mi NE 11.5 mph 20.7 mph N/A   Partly Cloudy
1:53 PM 75.0 °F 51.1 °F 43% 30.14 in 10.0 mi ENE 16.1 mph 24.2 mph N/A   Mostly Cloudy
2:53 PM 75.9 °F 48.9 °F 38% 30.14 in 10.0 mi ENE 15.0 mph 23.0 mph N/A   Scattered Clouds
3:53 PM 73.9 °F 51.1 °F 45% 30.13 in 10.0 mi ENE 18.4 mph 27.6 mph N/A   Scattered Clouds
4:53 PM 72.0 °F 48.0 °F 43% 30.14 in 10.0 mi NE 16.1 mph - N/A   Clear
5:53 PM 70.0 °F 50.0 °F 49% 30.15 in 10.0 mi ENE 11.5 mph 20.7 mph N/A   Scattered Clouds
6:53 PM 68.0 °F 51.1 °F 55% 30.16 in 10.0 mi East 6.9 mph - N/A   Mostly Cloudy
7:53 PM 70.0 °F 51.1 °F 51% 30.17 in 10.0 mi East 8.1 mph - N/A   Mostly Cloudy
8:53 PM 70.0 °F 51.1 °F 51% 30.19 in 10.0 mi ENE 8.1 mph - N/A   Overcast
9:53 PM 69.1 °F 51.1 °F 53% 30.20 in 10.0 mi ENE 9.2 mph - N/A   Mostly Cloudy
10:53 PM 68.0 °F 51.1 °F 55% 30.19 in 10.0 mi East 10.4 mph - N/A   Partly Cloudy
11:53 PM 66.0 °F 51.1 °F 59% 30.19 in 10.0 mi NE 4.6 mph - N/A   Mostly Cloudy